Weather History for KJKL - July, 2013

Change the Weather History Date:

Tuesday, July 2, 2013

  Actual Average Record
Temperature  
Mean Temperature 70 °F 75 °F  
Max Temperature 79 °F 85 °F 93 °F (1991)
Min Temperature 61 °F 66 °F 53 °F (1988)
Degree Days  
Heating Degree Days 0 0  
Month to date heating degree days 0 0  
Since 1 June heating degree days 0 12  
Since 1 July heating degree days 0 0  
Cooling Degree Days 5 10  
Month to date cooling degree days 12 20  
Year to date cooling degree days 384 379  
Since 1 June cooling degree days 236 243  
Growing Degree Days 18 (Base 50)    
Moisture  
Dew Point 65 °F    
Average Humidity 87    
Maximum Humidity 100    
Minimum Humidity 74    
Precipitation  
Precipitation 0.51 in 0.15 in 0.80 in (1996)
Month to date precipitation 1.02 0.30  
Year to date precipitation 27.58 25.51  
Snow  
Snow 0.00 in 0.00 in - ()
Month to date snowfall 0.0 0.0  
Since 1 June snowfall 0.0 0.0  
Since 1 July snowfall 0.0 0.0  
Snow Depth 0.00 in    
Sea Level Pressure  
Sea Level Pressure 29.99 in    
Wind  
Wind Speed 2 mph (SE)    
Max Wind Speed 8 mph    
Max Gust Speed 12 mph    
Visibility 6 miles    
Events Fog , Rain , Thunderstorm    
T = Trace of Precipitation, MM = Missing Value Source: NWS Daily Summary

Daily Weather History Graph

Daily Weather History Graph

Search for Another Location

Airport or City:

Trip Planner

Search our weather history database for the weather conditions in past years. The results will help you decide how hot, cold, wet, or windy it might be!

Date:

Astronomy

Jul. 02, 2013 Rise Set
Actual Time 6:16 AM EDT 8:58 PM EDT
Civil Twilight 5:45 AM EDT 9:29 PM EDT
Nautical Twilight 5:06 AM EDT 10:08 PM EDT
Astronomical Twilight 4:22 AM EDT 10:51 PM EDT
Moon 2:14 AM EDT (7/2) 4:14 PM EDT (7/2)
Length of Visible Light 15h 44m
Length of Day
14h 42m
Waning Crescent, 26% of the Moon is Illuminated
Jul 2
Waning Crescent
Jul 8
New
Jul 15
First Quarter
Jul 22
Full
Jul 29
Last Quarter

Hourly Weather History & Observations

Time (EDT) Temp. Dew Point Humidity Pressure Visibility Wind Dir Wind Speed Gust Speed Precip Events Conditions
12:53 AM 62.1 °F 61.0 °F 96% 29.92 in 0.2 mi Calm Calm - N/A Fog Fog
1:42 AM 62.6 °F 60.8 °F 94% 29.95 in 2.0 mi Calm Calm - N/A   Mostly Cloudy
1:45 AM 62.6 °F 60.8 °F 94% 29.95 in 6.0 mi Calm Calm - N/A   Scattered Clouds
1:53 AM 62.1 °F 61.0 °F 96% 29.91 in 3.0 mi Calm Calm - N/A   Scattered Clouds
1:57 AM 62.6 °F 60.8 °F 94% 29.95 in 1.8 mi Calm Calm - N/A   Partly Cloudy
2:04 AM 62.6 °F 60.8 °F 94% 29.95 in 1.0 mi Calm Calm - N/A   Mist
2:12 AM 60.8 °F 60.8 °F 100% 29.95 in 0.2 mi Calm Calm - N/A Fog Fog
2:50 AM 60.8 °F 60.8 °F 100% 29.94 in 1.8 mi Calm Calm - N/A   Mostly Cloudy
2:53 AM 61.0 °F 60.1 °F 97% 29.91 in 5.0 mi Calm Calm - N/A   Scattered Clouds
3:09 AM 60.8 °F 60.8 °F 100% 29.95 in 1.5 mi Calm Calm - N/A   Partly Cloudy
3:12 AM 60.8 °F 60.8 °F 100% 29.95 in 0.8 mi Calm Calm - N/A   Mist
3:34 AM 60.8 °F 60.8 °F 100% 29.94 in 1.8 mi Calm Calm - N/A   Mostly Cloudy
3:44 AM 60.8 °F 60.8 °F 100% 29.94 in 1.5 mi Calm Calm - N/A   Mostly Cloudy
3:53 AM 61.0 °F 60.1 °F 97% 29.91 in 1.8 mi Calm Calm - N/A   Scattered Clouds
3:56 AM 60.8 °F 60.8 °F 100% 29.94 in 3.0 mi Calm Calm - N/A   Scattered Clouds
4:53 AM 61.0 °F 60.1 °F 97% 29.92 in 10.0 mi Variable 3.5 mph - N/A   Clear
5:53 AM 62.1 °F 61.0 °F 96% 29.94 in 10.0 mi Calm Calm - N/A   Clear
6:53 AM 63.0 °F 62.1 °F 97% 29.95 in 9.0 mi Calm Calm - N/A   Clear
7:53 AM 64.0 °F 62.1 °F 93% 29.98 in 10.0 mi Calm Calm - N/A   Clear
8:53 AM 66.0 °F 63.0 °F 90% 29.99 in 10.0 mi South 3.5 mph - 0.00 in   Overcast
10:53 AM 71.1 °F 64.9 °F 81% 30.01 in 10.0 mi Calm Calm - N/A   Overcast
11:53 AM 75.0 °F 66.9 °F 76% 30.01 in 10.0 mi Variable 3.5 mph - N/A   Mostly Cloudy
12:47 PM 71.6 °F 66.2 °F 83% 30.04 in 1.5 mi NNW 6.9 mph - 0.00 in Rain Heavy Rain
12:53 PM 71.1 °F 66.0 °F 84% 30.01 in 1.2 mi North 3.5 mph - 0.15 in Rain Light Rain
12:57 PM 71.6 °F 66.2 °F 83% 30.04 in 2.5 mi Calm Calm - 0.00 in Rain Light Rain
1:04 PM 75.2 °F 68.0 °F 78% 30.04 in 10.0 mi Variable 3.5 mph - 0.00 in   Mostly Cloudy
1:53 PM 77.0 °F 70.0 °F 79% 30.00 in 10.0 mi Calm Calm - 0.00 in   Partly Cloudy
2:32 PM 75.2 °F 69.8 °F 83% 30.03 in 10.0 mi Calm Calm - N/A Thunderstorm Mostly Cloudy
2:53 PM 72.0 °F 69.1 °F 91% 30.01 in 0.8 mi Variable 5.8 mph - 0.00 in Rain Heavy Rain
3:05 PM 69.8 °F 68.0 °F 94% 30.04 in 0.5 mi SSE 3.5 mph - 0.30 in Fog , Rain , Thunderstorm Heavy Thunderstorms and Rain
3:17 PM 69.8 °F 68.0 °F 94% 30.04 in 1.2 mi Variable 3.5 mph - 0.36 in Rain Light Rain
3:21 PM 69.8 °F 68.0 °F 94% 30.04 in 3.0 mi Calm Calm - 0.36 in Rain Light Rain
3:31 PM 73.4 °F 69.8 °F 88% 30.03 in 10.0 mi Calm Calm - 0.36 in Thunderstorm Scattered Clouds
3:43 PM 73.4 °F 69.8 °F 88% 30.03 in 10.0 mi Calm Calm - 0.36 in Thunderstorm Mostly Cloudy
3:53 PM 73.9 °F 70.0 °F 87% 30.00 in 10.0 mi Calm Calm - 0.36 in Thunderstorm Mostly Cloudy
4:04 PM 73.4 °F 69.8 °F 88% 30.03 in 10.0 mi Variable 3.5 mph - N/A   Mostly Cloudy
4:53 PM 77.0 °F 69.1 °F 76% 29.99 in 10.0 mi Variable 3.5 mph - N/A   Partly Cloudy
5:53 PM 77.0 °F 70.0 °F 79% 29.99 in 10.0 mi Calm Calm - N/A   Partly Cloudy
6:53 PM 75.0 °F 68.0 °F 79% 29.99 in 10.0 mi ESE 3.5 mph - N/A   Overcast
7:53 PM 73.9 °F 68.0 °F 82% 30.01 in 10.0 mi Calm Calm - N/A   Overcast
8:53 PM 73.0 °F 68.0 °F 84% 30.01 in 10.0 mi ESE 3.5 mph - N/A   Overcast
9:53 PM 73.0 °F 66.0 °F 79% 30.03 in 10.0 mi SSE 3.5 mph - N/A   Overcast
10:53 PM 72.0 °F 64.9 °F 78% 30.05 in 10.0 mi Calm Calm - N/A   Clear
11:53 PM 70.0 °F 64.0 °F 81% 30.05 in 10.0 mi Calm Calm - N/A   Clear